TimeCDT,TemperatureF,Dew PointF,Humidity,Sea Level PressureIn,VisibilityMPH,Wind Direction,Wind SpeedMPH,Gust SpeedMPH,PrecipitationIn,Events,Conditions,WindDirDegrees,DateUTC
12:53 AM,45.0,28.0,52,30.23,10.0,North,6.9,-,N/A,,Overcast,10,2013-04-02 05:53:00
1:53 AM,45.0,26.1,48,30.24,10.0,NNE,8.1,-,N/A,,Overcast,20,2013-04-02 06:53:00
2:53 AM,44.1,28.0,53,30.24,10.0,NNE,5.8,-,N/A,,Overcast,30,2013-04-02 07:53:00
3:53 AM,44.1,25.0,47,30.24,10.0,NNE,8.1,-,N/A,,Overcast,30,2013-04-02 08:53:00
4:53 AM,43.0,23.0,45,30.24,10.0,NE,11.5,-,N/A,,Overcast,40,2013-04-02 09:53:00
5:53 AM,43.0,23.0,45,30.27,10.0,NNE,9.2,-,N/A,,Overcast,30,2013-04-02 10:53:00
6:53 AM,42.1,21.9,45,30.29,10.0,NE,10.4,-,N/A,,Overcast,50,2013-04-02 11:53:00
7:53 AM,41.0,21.9,47,30.31,10.0,NE,10.4,-,N/A,,Overcast,40,2013-04-02 12:53:00
8:53 AM,41.0,21.0,45,30.32,10.0,NE,12.7,-,N/A,,Overcast,40,2013-04-02 13:53:00
9:53 AM,41.0,23.0,49,30.33,10.0,NE,10.4,-,0.00,,Overcast,40,2013-04-02 14:53:00
10:53 AM,41.0,24.1,51,30.34,10.0,ENE,8.1,-,0.00,,Overcast,70,2013-04-02 15:53:00
11:53 AM,41.0,26.1,55,30.35,10.0,NNE,4.6,-,0.01,Rain,Light Rain,30,2013-04-02 16:53:00
12:53 PM,43.0,24.1,47,30.33,10.0,Calm,Calm,-,0.00,,Overcast,0,2013-04-02 17:53:00
1:53 PM,44.1,24.1,45,30.31,10.0,NE,6.9,-,0.00,,Overcast,50,2013-04-02 18:53:00
2:53 PM,44.1,23.0,43,30.30,10.0,NE,4.6,-,N/A,,Overcast,40,2013-04-02 19:53:00
3:53 PM,45.0,23.0,42,30.27,10.0,ENE,3.5,-,N/A,,Overcast,60,2013-04-02 20:53:00
4:53 PM,45.0,24.1,44,30.27,10.0,NE,5.8,-,N/A,,Overcast,50,2013-04-02 21:53:00
5:53 PM,45.0,23.0,42,30.28,10.0,Calm,Calm,-,N/A,,Overcast,0,2013-04-02 22:53:00
6:53 PM,45.0,25.0,46,30.28,10.0,Calm,Calm,-,N/A,,Overcast,0,2013-04-02 23:53:00
7:53 PM,43.0,30.0,60,30.27,10.0,Calm,Calm,-,N/A,,Mostly Cloudy,0,2013-04-03 00:53:00
8:53 PM,41.0,30.0,65,30.28,7.0,Calm,Calm,-,N/A,,Mostly Cloudy,0,2013-04-03 01:53:00
9:53 PM,39.0,33.1,79,30.30,10.0,Calm,Calm,-,N/A,,Clear,0,2013-04-03 02:53:00
10:53 PM,37.0,30.9,79,30.29,10.0,North,3.5,-,N/A,,Clear,350,2013-04-03 03:53:00
11:53 PM,36.0,28.0,73,30.29,10.0,North,3.5,-,N/A,,Clear,360,2013-04-03 04:53:00